Location: Miles
(41.4492°N, 81.6087°W)
Time: 07:31:41
(UTC+00:00)

Vanguard 2 Rocket - Visible Passes

Search period start: 19 September 2024 00:00
Search period end: 29 September 2024 00:00
Orbit: 553 x 3300 km, 32.9° (Epoch: 18 September)

Date Brightness Start Highest point End Pass type
(mag) Time Alt. Az. Time Alt. Az. Time Alt. Az.
19 Sep 8.9 07:11:02 51° SE 07:11:02 51° SE 07:24:14 10° E visible
19 Sep 9.1 09:16:32 30° WSW 09:23:58 56° S 09:42:18 10° ESE visible
20 Sep 9.7 06:11:32 27° ESE 06:11:32 27° ESE 06:17:57 10° E visible
20 Sep 8.6 08:17:02 53° SW 08:19:17 58° S 08:36:20 10° ESE visible
20 Sep 9.7 10:22:33 11° W 10:35:00 44° SSW 10:52:50 10° SE visible
21 Sep 8.9 07:17:36 50° SE 07:17:36 50° SE 07:30:08 10° ESE visible
21 Sep 9.1 09:23:06 29° WSW 09:30:07 50° SSW 09:47:38 10° SE visible
22 Sep 9.7 06:18:11 26° ESE 06:18:11 26° ESE 06:23:58 10° E visible
22 Sep 8.6 08:23:41 50° SSW 08:25:31 53° S 08:41:55 10° ESE visible
22 Sep 9.8 10:29:12 10° W 10:40:59 36° SSW 10:57:25 10° SSE visible
23 Sep 8.9 07:24:20 46° SE 07:24:20 46° SE 07:35:55 10° ESE visible
23 Sep 9.1 09:29:51 27° WSW 09:36:14 42° SSW 09:52:37 10° SE visible
24 Sep 9.8 06:25:00 23° ESE 06:25:00 23° ESE 06:29:54 10° ESE visible
24 Sep 8.7 08:30:32 46° SSW 08:31:44 47° SSW 08:47:13 10° SE visible
24 Sep 9.8 10:36:17 10° W 10:46:59 28° SSW 11:01:22 10° SSE visible
25 Sep 9.1 07:31:16 40° SE 07:31:16 40° SE 07:41:30 10° ESE visible
25 Sep 9.2 09:36:48 25° WSW 09:42:22 34° SSW 09:57:07 10° SSE visible
26 Sep 9.9 06:32:02 20° ESE 06:32:02 20° ESE 06:35:43 10° ESE visible
26 Sep 8.9 08:37:34 39° SSW 08:37:59 39° SSW 08:52:11 10° SE visible
26 Sep 9.9 10:44:11 10° WSW 10:53:01 20° SSW 11:04:21 10° S visible
27 Sep 9.3 07:38:23 32° SSE 07:38:23 32° SSE 07:46:50 10° SE visible
27 Sep 9.4 09:43:55 21° SW 09:48:32 26° SSW 10:00:58 10° SSE visible
28 Sep 10.1 06:39:12 15° ESE 06:39:12 15° ESE 06:41:22 10° ESE visible
28 Sep 9.2 08:44:44 30° SSW 08:44:44 30° SSW 08:56:40 10° SSE visible
28 Sep 10.0 10:53:49 10° WSW 10:59:08 13° SW 11:05:17 10° SSW visible
